Volver al catálogo

GAOFEN 11-05

ActivoCienciaSSO
NORAD 60249·PAYLOAD·🇨🇳 China

Lanzado Jul 19, 2024 desde Taiyuan Satellite Launch Center

Loading…

Próximos Pases (próximas 24 horas)

TLE

ActualizadoSource: Space-Track

Época: Sep 14, 2026, 15:16 UTC

1 60249U 24130A   26257.63621606  .00004172  00000-0  17777-3 0  9999
2 60249  97.3935 334.6863 0002862  78.5054 281.6504 15.23498942 99088

Sigue GAOFEN 11-05 en tiempo real con AllMySat

Download on the App Store